Location: Aigremont
(47.7188°N, 3.8925°E)
Time: 04:56:13
(UTC+00:00)

Cosmos 2263 - Pass Details

Date: 18 February 2020
Orbit: 832 x 865 km, 70.9° (Epoch: 29 March)

Event Time Altitude Azimuth Distance (km) Brightness Sun altitude
Exits shadow 04:45:59 - 333° (NNW) 3,164 7.0 -20.9°
Reaches altitude 10° 04:47:45 10° 335° (NNW) 2,490 6.4 -20.6°
Maximum altitude 04:53:29 74° 61° (ENE) 881 4.4 -19.6°
Drops below altitude 10° 04:59:07 10° 147° (SSE) 2,452 7.0 -18.7°
Sets 05:01:32 0° 149° (SSE) 3,378 7.7 -18.3°
